Wind_Speed
15 14 13 12 10 9 10 11 11 13 16 15 16 15 12 10 9 10 12 14 10 10 14 10 9 12 9 3 7 13 13 13 17 17 11 7 8 10 7 2 2 1 1 5 8 11 12 13 11 8 8 8 6 5 4 4 5 4 4 4 4 4 4 3 4 5 6 7 8 8 9 10 11 12 12 12 13 14 15 16 17 18 17 16 15 15
17 18 17 14 11 11 11 12 15 20 23 20 20 20 16 14 10 10 12 15 15 10 11 10 12 15 8 3 8 13 16 19 20 20 13 8 8 13 12 7 5 5 5 7 10 15 18 17 13 8 8 9 7 7 6 5 4 4 3 4 3 4 4 4 4 5 5 7 8 9 10 11 11 11 11 12 13 14 15 16 17 17 15 14 14 14
19 21 19 14 12 13 14 16 18 21 24 24 21 22 21 18 14 13 12 14 20 16 10 10 16 17 11 9 11 14 19 20 19 17 11 8 9 12 12 11 10 7 5 11 13 16 17 16 13 9 9 9 8 7 7 6 5 4 4 4 4 4 4 4 5 6 6 7 8 9 10 10 11 11 11 12 12 14 15 16 15 14 13 14 15 15
19 20 19 16 15 16 16 15 16 18 19 23 23 24 25 20 16 14 13 16 23 21 12 12 18 19 15 16 17 18 20 19 19 17 12 12 11 13 12 11 12 10 9 14 15 16 15 14 13 10 9 8 8 8 7 7 6 5 4 5 6 6 5 5 6 7 8 9 9 9 10 10 10 11 11 12 12 13 14 14 13 12 13 15 16 18
19 17 16 16 17 19 20 20 20 21 22 23 23 24 26 22 17 14 16 21 23 23 18 15 18 20 20 22 22 23 21 20 20 19 15 16 15 16 14 11 14 15 13 14 16 17 15 13 12 10 11 10 9 9 8 7 7 6 5 5 5 6 6 6 7 7 8 9 9 9 10 10 11 11 12 13 13 13 13 13 13 14 15 17 18 21
20 16 15 16 19 21 23 25 25 23 24 26 22 19 21 20 16 12 13 22 25 24 22 18 14 16 23 27 26 27 24 22 21 16 15 18 18 19 17 13 15 16 16 16 16 18 17 14 13 11 12 11 9 9 9 9 8 7 6 5 6 6 7 8 8 8 8 9 10 10 11 12 12 13 14 14 14 13 13 15 16 17 17 19 21 22
20 15 15 16 20 23 23 26 25 20 24 27 19 14 16 15 12 10 9 18 25 22 22 21 15 13 24 29 27 28 26 24 21 13 13 17 19 21 20 16 16 16 18 19 16 18 18 16 15 14 14 11 9 9 10 10 10 8 7 7 6 7 8 9 8 9 9 9 10 10 11 12 13 14 15 16 16 15 16 17 18 18 19 22 23 22
16 12 14 16 19 22 23 26 23 18 23 23 16 16 17 12 11 11 8 9 14 15 19 25 20 12 20 26 25 29 28 25 23 12 10 13 17 20 20 18 18 16 18 20 18 18 18 18 17 16 15 12 10 10 12 12 10 9 8 8 8 8 9 9 8 9 9 10 10 10 11 12 13 14 15 16 17 17 17 17 18 19 22 24 24 22
13 13 15 16 18 20 21 22 21 18 19 17 14 18 19 14 11 7 6 10 11 10 18 28 25 9 11 23 25 28 30 24 18 12 10 10 11 16 19 18 18 18 18 19 19 20 20 20 18 16 14 12 11 12 14 13 11 10 9 9 10 10 9 9 9 8 9 10 11 11 11 12 13 14 14 15 16 17 17 18 19 22 24 24 23 21
14 16 17 16 18 21 19 18 18 18 17 19 20 21 20 19 15 9 8 11 10 8 13 24 27 12 7 22 28 29 33 25 13 12 13 11 9 12 15 16 18 19 19 20 20 22 23 22 20 17 15 12 13 15 15 13 12 11 9 10 11 10 10 10 10 10 10 11 11 11 12 12 13 13 14 15 16 17 18 20 22 24 24 22 21 21
17 15 17 20 21 20 19 19 19 18 18 20 21 18 16 19 18 13 13 12 7 6 9 14 24 18 7 17 29 29 26 17 11 12 13 12 10 11 13 14 18 18 19 20 21 23 24 23 21 18 16 14 15 16 15 14 13 12 9 10 11 11 11 11 12 12 12 12 12 12 12 13 13 14 15 15 16 17 19 21 22 22 20 19 19 19
20 15 17 22 22 19 18 18 18 17 16 15 14 11 9 10 10 8 8 8 3 3 11 15 20 22 13 16 25 24 15 9 10 12 10 10 9 9 11 13 17 18 18 20 22 23 22 21 20 19 18 17 16 17 15 14 15 13 10 10 11 11 11 12 13 13 12 12 12 12 13 13 13 13 14 15 16 18 20 20 19 18 18 18 18 18
22 21 18 19 20 18 17 17 17 18 16 14 11 7 4 3 4 4 3 3 3 4 13 17 15 17 19 21 19 17 16 12 12 9 7 8 6 5 7 12 15 16 17 19 21 22 20 19 19 18 18 17 16 17 16 16 16 13 10 10 11 11 12 13 14 13 13 12 12 12 13 13 13 13 14 16 18 19 19 17 17 16 17 16 16 15
18 20 21 21 19 18 19 20 20 20 17 16 14 9 5 1 1 1 3 3 3 6 14 16 10 8 14 18 13 14 16 14 11 8 7 8 6 4 5 10 14 15 16 18 20 21 20 19 18 18 19 18 17 17 17 16 16 14 11 10 11 12 13 13 14 14 13 12 12 12 13 13 13 14 15 17 18 18 16 15 15 15 15 15 14 13
15 15 16 19 18 17 21 23 21 19 18 17 15 11 11 9 5 3 4 3 4 10 17 15 7 5 7 9 10 13 15 15 14 12 10 9 9 8 7 9 11 13 15 17 19 21 20 19 18 18 19 19 17 18 18 18 16 14 11 10 11 12 13 14 14 13 13 12 12 12 12 13 13 14 16 18 17 16 15 15 14 14 14 13 12 11
18 18 13 12 14 14 19 23 21 21 20 17 13 13 16 15 12 9 10 11 10 8 11 9 3 6 7 10 15 17 18 18 18 15 12 11 13 12 9 9 10 11 14 15 17 19 19 19 18 18 19 19 19 19 19 18 17 15 12 10 10 11 13 13 13 12 12 12 11 11 11 12 13 14 16 16 15 13 13 13 13 12 12 11 9 8
13 17 15 11 13 17 20 22 24 22 18 14 14 18 19 15 14 13 12 15 13 5 6 7 5 9 10 14 20 20 20 22 20 17 16 14 14 12 9 9 9 10 12 14 16 17 17 18 18 18 18 18 20 21 20 17 16 15 12 10 10 11 13 13 12 12 12 12 12 11 11 12 14 15 15 14 12 12 11 11 11 11 10 8 7 6
12 15 15 12 16 18 15 17 25 23 16 14 14 12 12 13 14 13 7 5 5 2 5 6 9 17 14 13 19 20 20 21 19 19 19 17 15 12 8 9 9 10 12 13 15 16 17 18 18 18 18 20 22 21 19 17 15 14 12 11 11 13 13 12 11 12 13 13 12 11 11 12 14 14 12 11 10 10 10 9 10 9 8 6 5 6
14 16 15 11 12 9 4 12 24 25 20 17 13 6 7 8 8 9 5 1 2 2 2 1 8 18 18 16 20 22 21 22 20 20 21 18 13 9 6 7 8 10 13 14 16 16 17 18 18 17 18 21 20 17 16 16 15 14 13 12 12 13 13 11 11 13 13 13 12 11 12 13 13 11 9 8 9 8 8 8 8 8 6 5 6 7
12 12 13 9 6 4 5 12 18 21 23 22 16 12 12 10 8 9 8 5 5 3 2 1 2 13 20 19 23 24 22 22 21 20 19 14 11 8 7 6 7 9 12 14 15 16 17 18 17 17 18 20 18 16 15 15 14 14 14 13 12 13 13 13 12 13 13 12 12 13 14 13 11 9 8 8 8 8 7 7 7 5 5 6 7 9
13 11 13 12 8 4 2 5 4 7 20 25 21 19 16 15 13 10 10 11 9 4 4 5 3 12 20 20 25 26 21 20 20 17 14 12 12 11 9 8 7 7 10 13 14 16 16 16 16 16 17 18 17 16 15 14 14 14 14 13 12 13 14 13 12 12 13 13 13 13 14 13 10 8 8 7 8 7 6 6 5 3 4 6 8 9
14 10 13 15 15 11 6 5 9 8 11 15 20 22 17 17 16 8 8 12 13 11 6 5 3 12 18 19 24 25 19 17 16 13 12 13 13 11 9 9 7 7 10 13 14 15 15 15 16 16 16 16 16 15 15 14 15 15 15 14 14 13 13 12 11 12 13 13 13 14 13 11 8 7 7 7 7 7 5 4 3 3 4 6 8 9
12 10 14 16 16 15 13 12 11 10 11 12 15 19 14 15 17 12 9 10 12 15 10 4 2 10 17 17 22 23 18 15 14 13 14 16 15 12 10 9 8 8 10 13 15 16 15 15 16 15 15 15 14 15 14 14 15 16 16 16 14 12 11 12 12 12 12 13 14 14 12 9 7 7 7 7 7 6 4 3 3 4 5 6 7 8
10 10 12 13 14 15 14 13 11 7 8 14 10 11 12 14 19 18 14 11 9 8 3 5 1 8 16 16 20 23 19 15 15 15 16 17 15 14 12 11 10 9 11 14 15 16 15 15 15 14 14 14 14 15 14 14 17 18 15 13 12 12 12 12 12 12 13 14 14 13 11 8 6 6 7 7 6 5 3 3 4 6 6 6 6 8
5 3 6 9 10 11 10 8 6 4 8 12 10 8 8 10 13 11 4 3 4 7 1 5 3 10 17 18 21 23 20 17 17 18 17 15 14 15 14 13 12 11 13 14 15 15 14 14 14 14 15 15 15 15 15 17 19 16 11 10 11 11 11 12 12 13 14 13 12 11 10 9 7 6 7 7 5 4 2 3 5 6 5 5 5 6
3 4 1 4 3 4 6 8 10 15 16 14 13 14 13 10 9 5 4 7 7 7 4 4 8 16 20 19 21 22 20 21 19 18 17 15 16 17 16 15 14 13 14 14 14 14 13 13 14 15 17 17 17 18 19 20 19 13 8 9 11 10 10 11 12 13 12 10 10 10 10 10 8 6 7 6 4 3 3 3 4 4 4 4 4 5
3 2 0 2 3 6 9 12 17 19 18 14 15 16 9 4 7 4 5 5 8 10 9 6 9 19 23 21 22 23 22 22 18 16 16 16 18 18 17 16 15 13 13 12 13 13 13 13 14 16 18 18 19 20 20 20 17 11 7 8 10 10 10 11 10 11 10 9 8 9 9 9 8 6 6 5 3 2 2 4 4 4 5 5 5 5
5 4 3 5 8 9 10 14 15 14 15 17 17 14 6 4 5 8 5 9 8 7 9 10 11 16 20 20 19 19 19 18 16 14 14 16 17 18 17 15 13 12 13 12 12 13 13 13 14 14 16 17 18 18 18 18 14 8 5 7 9 9 9 8 9 10 9 7 7 8 7 7 6 6 6 4 2 1 3 4 5 5 6 6 6 4
5 3 1 5 11 11 10 12 11 10 12 15 16 14 11 10 5 2 5 9 9 6 8 12 11 11 14 15 14 14 15 15 13 13 13 14 14 14 14 12 11 12 12 11 12 12 12 12 12 13 14 15 16 17 17 15 10 5 4 6 8 8 7 7 8 10 8 5 6 8 7 6 6 6 5 3 2 3 4 5 6 6 7 6 5 4
3 3 1 2 7 10 12 11 7 7 9 13 16 15 14 15 14 11 10 10 10 9 8 7 8 8 10 14 14 14 15 15 14 13 12 11 11 11 11 11 11 11 11 11 12 12 12 12 11 12 13 13 15 15 15 12 7 4 4 6 7 7 6 7 9 9 7 5 5 7 8 7 5 5 4 2 2 4 4 5 6 7 7 6 6 5
2 1 2 2 3 5 11 11 5 5 6 13 18 14 13 13 12 11 10 9 10 11 10 6 6 8 10 14 15 13 13 14 13 11 9 8 9 10 10 11 11 11 11 12 12 11 11 12 12 12 12 13 14 14 13 11 7 5 5 7 8 7 6 8 9 8 7 6 6 6 7 6 5 4 3 1 2 4 4 5 6 6 6 5 5 4
5 3 1 1 2 4 7 6 2 5 9 14 15 11 10 11 11 10 8 7 6 6 8 7 5 5 7 10 13 11 11 11 11 10 7 5 7 10 10 10 10 10 11 10 10 10 11 11 11 11 11 12 13 13 11 10 7 5 7 8 8 6 7 9 10 8 7 7 6 5 6 6 4 4 2 1 2 4 4 4 5 5 5 5 5 5
4 2 3 5 3 5 8 7 3 6 10 11 10 9 9 9 8 7 6 3 6 7 3 1 1 1 3 6 8 7 8 10 10 9 7 5 5 7 8 9 9 9 9 9 9 9 9 10 11 11 11 12 13 12 11 8 7 7 8 9 7 6 8 10 11 9 7 8 7 5 6 6 4 4 2 2 3 3 3 4 4 4 4 4 5 5
5 3 2 3 3 7 12 9 3 3 6 7 8 8 10 9 7 7 5 3 3 4 3 2 2 2 2 2 3 5 6 6 7 6 5 3 4 6 7 8 8 8 8 7 8 9 10 11 12 12 11 12 13 13 11 9 9 9 9 9 7 7 9 11 12 10 8 8 7 5 6 6 5 4 3 2 3 3 3 3 4 4 4 4 5 6
7 6 2 1 2 5 9 8 5 4 6 9 11 11 10 10 10 9 6 4 2 2 2 2 4 4 4 5 4 5 5 4 4 2 2 2 3 4 5 6 7 7 7 7 8 10 11 12 13 12 12 13 13 13 12 11 10 10 9 9 8 8 10 11 12 11 9 9 7 6 6 6 6 5 3 3 3 3 2 3 4 4 4 4 5 5
9 8 3 1 2 4 7 9 5 7 10 11 10 9 9 9 9 9 6 3 2 4 5 5 5 4 4 3 1 4 4 4 4 2 3 4 4 3 3 5 7 8 8 8 10 11 12 12 13 12 12 13 12 12 13 12 10 10 10 10 9 9 10 12 13 12 11 10 8 6 6 7 7 6 4 4 3 2 2 3 4 5 5 5 5 4
12 10 8 5 3 1 5 6 5 11 9 8 6 5 5 5 7 8 8 6 5 6 6 5 3 3 3 1 3 5 5 4 3 3 5 6 7 6 4 5 7 8 9 11 12 12 13 14 13 13 13 13 12 12 12 11 11 12 13 11 9 9 11 13 13 12 12 11 9 8 7 8 7 5 4 4 3 2 2 3 4 5 5 5 4 4
15 13 11 7 3 4 6 5 6 7 5 4 6 5 4 4 6 8 8 7 6 6 6 5 3 3 5 4 5 6 6 6 3 3 6 7 9 9 8 7 8 9 10 12 13 13 14 14 13 14 14 13 12 12 12 11 12 14 14 11 9 9 11 13 14 13 12 11 10 9 8 8 7 5 5 4 2 2 3 3 4 4 4 4 4 3
16 15 15 11 7 8 9 8 6 4 6 8 8 5 2 1 2 5 7 6 5 4 4 5 4 3 4 4 4 6 8 7 4 4 6 8 10 11 10 9 9 9 10 12 13 13 13 14 14 14 14 13 13 13 12 12 13 13 12 11 9 9 11 13 14 14 13 11 10 10 9 8 7 5 4 3 2 2 3 3 3 3 2 2 2 3
11 16 15 11 11 11 10 8 6 4 7 10 8 6 3 3 2 3 5 4 4 5 5 5 3 2 2 3 4 5 7 7 6 5 6 8 10 13 15 14 12 10 10 12 14 14 13 14 14 14 13 13 13 13 13 13 14 14 13 11 10 10 12 14 15 14 13 11 10 10 9 8 6 4 4 3 3 3 2 2 2 1 1 1 1 3
6 10 6 4 6 7 7 8 7 7 10 9 8 7 5 5 6 7 7 6 7 8 7 5 2 2 2 3 4 6 6 7 8 6 4 6 9 14 18 19 17 14 13 15 15 15 14 14 14 14 13 14 14 14 14 15 15 14 13 12 11 12 13 15 15 14 12 10 9 9 8 7 6 4 4 4 3 2 2 2 1 1 2 1 2 3
9 8 6 5 6 5 5 7 7 8 10 9 7 8 7 8 9 9 9 9 10 10 9 8 4 4 3 3 4 7 7 9 10 7 5 9 15 18 21 22 20 18 18 17 15 15 15 15 15 15 15 14 14 14 15 15 15 15 14 13 12 13 15 16 15 12 10 9 9 9 8 7 6 5 4 4 3 2 1 1 2 2 2 1 2 3
5 4 5 5 7 7 6 7 5 5 7 8 7 8 8 8 9 10 11 11 11 11 12 12 9 6 6 5 6 7 8 8 8 7 7 13 18 18 20 22 23 22 21 18 16 16 16 15 16 15 14 13 13 14 15 14 14 15 15 14 13 14 15 15 13 10 9 8 8 8 8 7 6 5 4 3 2 1 1 2 3 3 2 2 3 4
2 2 3 3 3 5 6 6 5 6 8 8 8 8 8 9 9 11 13 13 13 13 13 13 10 8 7 7 6 6 6 8 8 7 8 12 13 13 18 22 25 23 20 18 17 16 16 16 16 14 14 14 15 15 16 16 14 14 14 14 14 15 15 13 10 8 8 8 8 8 7 6 5 4 4 3 3 2 2 2 3 2 1 2 3 4
1 1 2 2 3 4 4 5 6 7 9 9 10 10 11 12 13 15 16 15 14 12 11 11 10 9 8 7 6 5 5 7 7 6 7 9 10 13 18 22 22 20 17 16 16 16 16 16 16 15 15 16 16 17 18 18 16 15 14 14 14 14 13 11 8 7 7 8 8 7 6 5 5 5 5 5 4 4 4 3 2 1 1 2 3 4
4 4 4 4 4 5 7 8 9 10 11 11 11 12 14 14 15 15 14 13 12 10 8 8 8 7 7 7 7 5 5 5 6 5 5 8 11 15 19 20 19 17 16 17 18 18 16 15 15 15 15 16 17 18 18 16 15 14 14 13 12 11 10 9 7 6 7 8 7 6 5 5 5 6 6 5 4 4 4 2 1 1 2 2 3 3
4 5 5 6 7 7 8 9 9 11 11 11 11 12 12 13 14 14 13 11 10 7 5 5 6 6 5 5 5 4 4 4 5 6 6 8 12 16 18 17 16 16 17 19 19 17 15 14 14 14 14 15 16 15 13 12 12 12 12 11 10 10 9 8 7 7 7 7 7 6 6 6 6 6 6 5 4 4 3 2 1 1 2 2 3 3
4 5 6 8 9 8 8 8 9 10 10 10 11 11 12 13 13 13 11 9 6 5 5 5 6 6 5 4 4 4 3 3 4 5 6 7 11 14 14 12 11 12 14 17 18 16 15 14 14 13 13 13 12 10 9 9 9 9 9 9 9 8 8 7 7 7 7 8 7 7 7 7 7 7 6 6 4 4 4 3 2 2 2 3 3 4
6 7 7 7 8 8 8 9 10 11 11 10 10 10 12 12 12 12 11 8 6 6 5 5 6 7 6 5 4 3 3 3 3 4 5 8 10 11 10 8 9 11 12 15 17 16 14 13 12 11 12 12 11 10 10 8 6 5 6 7 8 8 7 6 7 7 8 8 7 8 8 8 9 9 8 7 6 5 5 4 3 3 3 4 4 4
6 7 7 7 9 10 11 10 11 11 10 9 9 9 10 10 11 11 9 7 6 6 5 5 6 8 8 6 4 3 3 3 4 6 7 9 9 8 7 9 12 12 11 14 17 14 10 8 10 13 13 12 10 9 8 6 3 4 5 6 7 7 6 7 7 7 7 7 7 7 8 9 10 10 9 9 8 7 6 5 4 4 4 4 5 5
6 6 6 7 8 9 10 10 10 9 9 8 8 8 9 9 8 8 7 6 5 4 4 5 7 8 7 5 4 3 3 4 6 7 9 9 8 7 7 10 12 9 7 13 15 11 6 5 11 12 10 9 9 7 5 4 1 3 5 6 8 7 7 7 7 7 7 6 6 7 8 9 10 9 8 9 9 8 7 6 5 5 5 5 6 6
Wind_Direction
244 243 240 246 252 253 245 244 253 263 275 257 237 274 284 238 259 286 253 231 218 234 244 258 283 264 249 250 236 226 210 202 210 214 231 277 290 271 268 354 36 66 337 309 282 264 259 256 253 255 258 259 263 271 286 280 266 270 288 301 287 274 282 296 301 298 304 310 312 312 303 295 299 304 309 310 309 310 309 309 311 312 315 317 318 317
235 235 233 234 240 247 246 248 263 279 286 273 253 263 259 232 250 289 270 233 209 223 261 271 265 252 242 225 226 221 202 195 206 215 232 281 288 272 268 258 277 311 282 251 247 247 254 260 258 254 251 251 257 262 276 282 264 264 287 308 300 272 272 277 282 286 289 299 307 304 296 298 306 309 309 308 305 306 305 305 307 307 311 316 317 317
231 232 234 228 227 239 244 253 270 280 286 285 271 261 254 241 249 268 266 236 206 207 262 266 244 239 228 224 228 216 205 202 212 224 247 281 276 279 277 259 271 303 252 227 243 258 261 266 267 260 251 250 256 257 267 274 258 260 279 285 296 291 276 268 273 280 279 287 298 300 301 306 310 309 308 306 304 304 302 299 299 302 310 316 315 314
236 238 238 234 233 238 243 251 268 277 280 288 285 270 259 249 256 256 230 217 206 207 248 252 230 230 226 230 220 207 215 219 220 232 265 285 280 289 291 278 273 267 241 235 247 262 265 269 272 266 261 259 257 253 258 268 257 255 274 277 286 292 283 276 277 278 277 287 304 311 312 312 309 310 313 311 310 306 302 298 299 307 313 314 312 311
245 246 243 240 237 241 252 255 262 279 286 290 286 272 267 265 265 248 203 198 203 209 231 232 221 222 226 229 212 204 223 230 226 233 257 273 273 278 282 276 264 253 248 247 251 257 258 265 273 267 266 266 260 254 254 264 260 253 269 281 285 290 288 284 277 269 276 298 320 322 315 313 315 319 319 315 313 310 305 305 309 313 313 310 309 310
248 248 247 243 235 240 259 263 265 281 289 293 288 271 280 284 269 250 203 192 195 206 220 216 210 213 221 226 212 207 222 223 225 238 257 266 260 262 270 263 253 249 246 245 246 248 250 261 276 275 270 270 265 259 256 260 261 257 267 278 281 287 286 284 279 272 283 307 321 316 309 315 321 321 318 315 315 314 314 315 316 314 310 308 309 311
244 242 243 245 240 243 256 261 264 276 282 289 289 272 290 297 260 245 208 189 192 205 216 209 205 205 211 219 214 211 219 217 222 250 282 273 255 253 263 260 251 246 242 243 242 242 246 256 270 275 271 267 260 257 257 258 260 261 269 276 275 276 281 288 290 285 291 303 308 306 307 315 318 317 318 319 320 318 316 315 313 311 310 310 312 314
241 234 236 243 244 247 254 256 260 273 279 281 278 267 278 289 266 248 232 221 217 214 206 201 207 205 200 212 213 210 216 219 223 251 287 265 251 248 252 255 254 248 243 245 247 245 247 252 262 272 270 261 252 253 258 260 259 259 265 274 275 274 279 290 295 290 292 297 301 309 312 312 312 315 319 319 317 313 311 310 310 311 313 314 315 319
236 227 230 238 243 248 250 252 259 269 271 270 277 283 280 285 294 279 267 284 269 218 190 196 208 213 193 204 206 208 215 217 223 258 270 241 245 247 245 252 255 251 245 243 247 248 250 253 260 271 267 254 245 247 256 261 258 255 261 272 278 281 284 290 294 288 288 294 301 310 310 308 310 314 315 311 310 309 310 314 315 316 316 317 319 322
239 228 234 244 251 253 251 254 258 258 262 268 282 293 284 274 278 279 283 291 282 230 197 197 202 205 188 196 197 203 211 212 222 269 263 232 236 241 239 247 251 251 246 240 241 244 248 252 258 265 258 245 239 241 250 258 257 257 265 276 282 285 286 289 292 289 290 296 302 307 305 306 310 312 311 309 311 314 315 318 317 315 316 318 320 323
245 234 240 250 256 258 261 267 261 258 271 274 277 290 283 268 262 261 274 284 292 252 240 223 208 205 187 191 197 198 202 208 227 252 244 223 227 234 230 235 243 247 244 240 240 242 245 249 255 259 251 243 239 238 246 254 255 260 268 278 281 281 282 285 290 291 294 297 300 305 304 305 310 312 312 313 314 313 313 314 313 312 315 317 318 321
246 243 237 239 246 254 265 268 258 262 274 263 262 283 280 270 268 270 281 277 260 251 280 275 230 214 210 208 208 202 193 198 215 225 227 216 220 233 228 228 236 243 242 241 242 243 245 248 253 256 250 246 243 239 246 253 256 261 268 276 278 276 278 280 284 286 289 294 298 302 302 303 310 312 311 311 309 309 310 311 312 313 315 317 317 320
244 244 236 229 233 242 255 260 250 252 259 247 246 276 298 315 310 299 297 273 215 254 291 284 243 219 225 229 225 210 197 189 190 199 208 208 217 230 228 228 233 240 241 241 243 245 246 248 254 257 251 250 248 243 247 253 257 260 268 278 275 271 273 273 277 280 282 289 294 296 299 302 308 309 307 306 306 308 311 311 311 312 314 314 316 319
252 249 243 238 233 224 232 245 245 243 247 242 240 261 291 324 53 297 272 284 252 258 279 274 248 223 228 231 228 205 188 177 179 194 204 212 223 222 222 227 231 238 239 239 244 245 245 248 253 256 252 252 251 248 250 254 257 258 265 278 272 263 265 266 269 273 278 285 289 292 296 300 303 304 302 303 305 308 310 309 309 310 312 313 317 322
259 255 240 236 234 221 223 231 235 239 243 245 248 262 269 251 227 240 242 234 243 259 271 272 252 228 220 205 190 174 163 167 187 201 202 206 211 210 221 229 230 235 234 235 241 242 244 247 252 255 251 251 252 251 252 254 256 258 265 276 271 261 260 262 264 269 276 281 284 288 291 294 296 296 298 301 303 306 307 307 308 310 311 313 320 325
252 262 260 246 246 248 239 228 225 235 241 246 250 247 250 249 239 243 253 255 261 275 279 276 232 203 190 154 153 156 162 180 196 201 200 203 204 205 218 230 233 233 231 233 237 239 241 244 250 253 251 252 251 249 251 255 256 258 266 273 270 265 262 261 263 268 275 275 275 279 281 284 289 293 296 298 299 303 305 307 308 307 308 312 318 323
244 261 270 270 277 283 268 240 226 231 234 231 232 233 236 240 242 248 256 256 260 283 272 255 179 161 161 153 160 168 180 190 197 203 208 215 212 205 210 223 227 227 227 231 235 237 241 246 250 252 252 252 249 248 252 257 256 256 265 270 268 269 266 262 264 269 270 268 268 272 273 281 289 292 293 293 297 303 304 305 304 301 302 307 315 319
248 262 269 283 298 299 284 246 230 229 224 213 216 230 234 233 242 248 245 241 247 255 257 245 168 161 164 168 177 184 194 197 200 207 215 223 218 204 205 216 217 221 223 225 230 234 238 244 249 250 250 248 247 251 255 257 255 254 265 273 274 275 268 260 264 267 267 267 270 273 276 285 291 291 290 294 301 302 299 300 297 293 298 308 319 329
252 264 274 295 310 309 260 222 226 227 228 226 224 242 247 228 221 222 221 196 190 221 269 285 158 171 178 183 188 196 203 203 205 211 217 223 217 204 212 222 221 223 221 220 223 228 234 241 246 248 247 247 251 259 258 253 249 252 267 279 279 276 263 255 262 264 266 271 273 276 281 289 292 289 292 300 299 294 291 291 286 288 305 323 333 347
233 250 270 296 335 19 139 195 215 218 219 224 230 246 253 250 238 232 237 225 207 223 187 125 175 187 191 194 195 201 209 207 209 211 212 218 221 223 231 228 232 231 225 223 222 225 234 240 243 246 249 253 258 265 263 254 247 255 270 274 272 269 255 250 259 263 267 270 269 275 283 290 292 291 298 301 292 286 281 279 281 291 317 333 345 358
224 238 264 282 299 333 127 191 258 241 214 212 222 239 247 246 246 249 249 235 232 245 158 145 230 204 200 202 198 203 212 210 212 212 211 224 235 236 231 218 226 229 221 224 224 227 235 238 243 248 253 258 258 261 266 260 251 260 271 269 267 267 257 251 255 259 263 263 264 274 284 288 288 289 294 290 282 278 273 273 285 308 337 350 356 0
223 245 271 285 288 294 305 308 326 302 242 232 243 252 255 247 240 234 245 242 242 250 213 154 200 201 200 204 199 203 212 213 218 222 226 240 242 238 231 219 222 222 218 224 226 230 235 235 244 250 252 254 254 259 268 264 257 265 273 271 270 268 261 254 252 255 259 259 264 275 282 283 285 290 291 285 280 277 272 280 309 344 3 4 359 357
221 258 276 285 285 285 292 296 298 283 290 310 280 257 254 249 234 220 241 250 247 255 241 177 154 185 193 200 195 198 208 216 224 228 235 247 248 245 241 228 229 229 224 225 225 230 232 231 241 247 245 246 251 260 265 258 259 268 272 272 269 259 249 247 249 253 255 257 265 276 281 282 291 299 296 291 286 280 277 296 339 3 12 5 353 352
233 259 273 291 292 287 291 291 286 280 320 347 324 255 241 240 227 223 246 256 259 283 236 152 131 177 185 194 195 198 206 215 227 232 239 250 255 256 250 236 238 242 237 231 227 230 230 229 234 236 235 241 251 261 260 251 258 267 268 266 255 236 232 240 248 250 250 259 271 280 284 288 301 304 296 291 285 276 284 326 357 6 7 357 344 345
238 236 277 310 309 306 320 317 303 333 347 347 340 305 282 262 229 217 273 345 19 4 45 164 161 173 184 193 198 203 209 217 229 237 242 251 260 262 255 242 241 244 242 237 231 232 233 231 230 228 234 245 251 257 257 254 261 266 260 246 228 221 229 239 243 246 252 267 282 287 290 295 302 297 287 283 279 279 307 347 1 3 359 354 347 347
158 121 360 344 342 308 330 338 337 343 338 325 320 325 323 297 245 215 14 25 47 42 54 136 150 166 178 187 195 203 212 217 227 237 244 255 261 262 257 248 246 247 243 236 232 234 235 231 227 226 234 243 246 249 252 256 262 263 247 226 217 221 232 233 238 249 263 279 285 285 289 292 293 284 268 264 266 284 321 347 358 356 353 359 1 358
185 156 324 343 334 315 317 330 340 348 352 349 336 332 335 277 251 278 19 62 92 83 81 100 151 170 177 187 197 205 213 220 230 240 249 258 260 260 256 246 243 244 239 232 228 228 228 228 228 229 234 241 245 249 252 256 260 259 237 212 210 219 226 231 248 266 276 283 278 276 280 279 280 274 259 251 244 264 320 342 349 345 349 1 8 10
218 235 239 234 269 298 312 327 348 11 24 25 10 360 43 127 269 300 18 67 81 92 110 123 151 175 184 195 205 211 218 226 236 244 256 264 263 262 254 240 233 234 232 228 222 221 224 228 232 236 241 246 249 251 256 260 263 263 242 212 212 223 230 244 273 285 286 283 275 277 278 271 271 268 260 257 258 297 338 341 335 338 350 360 6 8
203 232 249 239 258 266 284 319 359 29 22 27 32 32 57 69 38 23 84 65 55 67 115 131 146 173 193 203 210 218 224 231 238 245 257 263 260 259 250 233 225 226 227 225 221 220 225 231 237 243 246 249 249 252 260 266 271 274 251 221 219 232 247 267 289 295 290 278 278 285 281 269 266 264 260 268 313 331 341 335 331 343 353 357 357 353
204 235 244 281 275 262 269 301 358 25 13 48 65 56 58 61 52 64 82 78 82 88 88 109 143 169 201 211 212 220 228 232 240 248 256 258 254 255 248 231 222 223 222 220 218 220 225 233 241 246 248 249 251 258 268 273 280 278 241 224 228 239 261 287 299 300 290 280 288 286 274 268 264 258 258 276 328 331 332 330 336 347 352 352 350 342
346 258 221 270 306 270 265 281 320 359 24 78 85 68 63 71 65 64 69 73 94 109 107 110 154 182 202 213 217 228 236 236 241 250 257 255 246 245 240 227 220 220 217 214 214 219 226 234 244 251 255 257 259 266 273 276 282 275 239 235 240 248 277 301 306 301 288 286 294 276 261 265 263 253 260 294 322 326 331 333 341 346 349 349 337 322
22 48 57 322 299 277 279 297 24 79 79 82 80 66 66 81 84 80 75 58 47 82 120 135 156 183 196 207 217 234 247 248 250 255 262 254 235 233 229 222 220 218 215 213 215 222 230 238 248 256 260 260 263 268 274 279 281 261 244 248 253 268 299 312 309 300 285 286 293 273 257 265 265 261 277 313 311 319 330 335 340 343 343 338 320 308
14 17 19 18 355 332 342 352 38 97 84 76 71 59 55 65 67 58 64 61 9 6 28 118 121 188 210 211 220 241 257 258 257 260 266 260 231 224 220 218 222 221 217 216 219 229 240 247 253 257 258 260 264 268 274 276 265 249 250 255 261 284 308 314 310 299 285 288 296 287 272 273 271 269 278 287 293 311 330 334 336 337 331 322 310 304
339 310 321 10 11 2 3 2 2 41 57 80 94 75 57 53 37 18 31 66 21 339 321 335 10 354 318 297 271 274 274 266 264 272 283 275 243 229 220 222 229 231 228 227 230 238 246 251 255 257 257 258 262 267 271 268 254 249 256 260 265 289 308 312 308 297 284 287 292 279 267 268 269 271 275 275 286 312 335 331 328 326 316 304 296 294
289 278 275 322 360 13 8 6 23 59 80 95 95 79 65 52 33 18 27 66 66 270 262 331 8 1 356 357 319 287 279 259 248 267 310 295 260 232 220 231 246 247 242 239 241 243 245 249 254 254 254 257 263 270 272 269 259 255 261 267 273 290 303 307 304 294 285 287 284 264 254 256 261 267 272 279 293 319 333 320 317 314 304 293 285 285
278 270 249 347 14 46 25 12 49 117 119 106 91 71 55 42 28 21 24 35 12 337 325 334 350 349 359 21 292 251 238 213 211 255 320 318 311 282 236 246 260 261 255 247 243 247 249 249 251 251 253 258 265 268 267 266 264 264 267 268 270 286 300 303 299 292 288 288 283 266 252 250 257 264 270 281 300 319 311 302 304 304 298 289 284 284
272 259 229 256 293 337 352 3 117 143 136 115 110 97 65 26 348 343 347 343 336 338 335 330 340 341 337 334 233 232 232 225 232 318 333 338 350 350 326 290 276 265 258 251 244 245 247 246 245 247 251 257 263 265 263 258 252 254 259 261 267 286 298 299 296 289 284 285 279 265 253 249 255 265 270 277 292 296 291 295 298 300 296 286 283 287
261 251 229 245 243 209 260 263 157 162 186 149 127 125 101 34 348 331 328 325 320 328 338 336 333 323 313 297 263 250 257 262 273 4 1 356 358 353 341 322 299 275 259 253 249 247 248 247 245 247 250 254 259 262 258 246 240 244 247 251 263 283 293 296 293 285 279 279 270 255 245 243 251 261 265 272 273 258 279 296 297 297 292 279 281 289
250 240 229 232 204 186 218 213 169 178 203 171 148 145 158 137 347 328 321 313 301 306 331 340 338 329 312 299 281 265 263 270 294 346 347 341 337 325 322 327 313 285 265 258 255 251 250 250 248 248 251 254 258 259 253 243 244 246 243 245 261 280 289 294 291 282 277 273 260 245 237 238 247 254 253 255 245 238 267 291 294 298 293 273 278 295
237 216 211 209 194 192 201 185 162 175 180 171 173 177 168 164 186 291 303 291 286 292 306 320 324 326 322 316 306 286 268 267 278 293 305 314 313 304 304 312 310 291 275 270 267 261 256 253 252 253 255 256 257 255 247 241 244 244 239 244 263 278 287 293 290 281 276 268 251 238 234 238 246 246 236 233 231 236 259 282 287 292 270 246 277 300
134 169 165 148 173 193 193 167 154 170 171 171 188 198 199 211 233 259 266 269 285 287 292 305 285 227 293 312 299 286 272 259 259 261 273 286 283 280 284 294 301 295 280 272 267 265 262 257 255 257 255 253 252 247 239 236 238 238 238 247 263 275 286 291 287 278 270 259 242 232 233 239 244 237 225 223 226 234 252 268 258 212 194 218 276 300
113 123 100 98 121 120 141 153 151 169 181 189 204 213 228 245 249 255 262 274 283 281 286 295 271 226 258 284 270 263 255 250 254 248 242 269 273 262 259 273 290 293 282 271 264 265 265 258 256 258 253 248 246 240 235 236 236 235 238 249 262 275 287 289 283 275 268 255 238 230 233 238 238 232 223 214 210 219 238 233 191 170 175 227 275 296
111 115 93 109 127 122 135 155 157 181 197 208 223 232 246 256 253 254 261 268 273 274 279 285 282 266 259 252 245 248 247 248 251 236 243 277 280 257 245 265 284 284 278 272 265 263 262 255 256 258 248 240 240 237 239 247 245 236 237 249 264 277 286 285 278 272 267 252 236 231 235 234 228 221 215 201 180 175 199 185 166 166 188 248 271 291
78 142 128 126 151 157 156 162 177 199 206 215 229 238 245 249 252 261 270 275 279 280 281 285 287 279 265 249 232 231 241 251 250 237 246 274 277 249 244 265 276 273 272 273 266 259 255 252 253 250 237 236 242 243 249 258 254 239 238 251 266 279 283 278 268 265 258 243 234 235 235 229 219 206 191 175 150 138 145 151 153 170 233 270 281 296
360 223 213 217 218 218 223 226 225 228 235 244 252 256 260 265 271 278 283 287 289 288 287 288 283 271 261 254 240 234 244 244 233 224 238 254 255 247 250 260 264 262 265 269 262 253 248 246 244 238 233 237 241 243 250 255 250 239 239 253 269 277 275 266 259 254 245 235 233 237 231 218 205 188 173 164 149 135 136 142 159 219 290 301 297 299
247 268 283 276 257 249 255 260 262 266 272 276 276 276 278 281 283 285 287 289 290 287 283 282 280 273 264 255 250 254 253 229 202 192 220 242 247 250 252 254 255 256 257 255 252 248 242 237 235 235 237 237 235 239 247 247 240 237 245 259 270 268 260 255 251 241 234 231 232 231 219 204 196 184 171 163 149 139 145 153 180 256 289 302 296 295
233 252 260 259 261 261 256 258 266 271 275 278 275 274 277 281 283 285 285 285 283 280 278 278 279 281 274 259 250 250 249 236 213 198 207 233 247 251 252 249 249 255 256 249 246 244 237 231 231 237 242 239 234 236 240 235 233 242 252 260 262 254 247 246 242 232 227 225 222 215 204 195 191 182 169 160 151 155 169 178 199 254 292 306 299 301
222 241 248 249 252 251 246 249 257 261 265 269 267 265 267 273 279 283 286 284 277 272 278 278 270 266 266 257 246 247 256 259 233 207 209 235 250 256 257 252 253 263 259 248 243 239 233 232 235 236 231 222 213 210 214 220 233 246 250 248 246 243 242 240 236 232 225 218 212 206 199 192 185 178 172 170 174 187 198 208 234 256 282 303 306 309
242 242 240 236 238 241 241 243 246 249 252 257 263 266 267 267 270 276 282 287 283 275 270 263 255 249 240 233 239 256 278 271 246 236 246 258 265 272 273 272 278 280 264 251 248 244 239 239 234 216 200 191 188 195 206 212 223 235 241 244 242 239 239 238 234 231 225 218 212 206 200 194 189 185 185 187 196 212 221 225 245 263 277 297 307 311
243 240 229 223 234 247 252 252 252 253 256 264 271 269 264 263 264 267 273 281 284 278 259 240 238 238 234 237 252 275 294 292 284 280 278 278 283 288 283 280 288 287 261 243 248 256 257 237 204 189 186 187 190 198 199 190 197 233 241 245 244 239 235 232 228 225 220 216 216 213 208 204 201 198 197 198 205 218 230 237 252 267 283 302 311 310
243 245 235 230 240 251 259 264 266 266 271 285 287 269 258 261 263 262 265 268 272 276 257 235 233 238 245 259 278 289 297 298 289 284 284 286 287 290 287 287 293 293 254 237 249 269 285 226 192 186 191 193 191 195 192 174 210 276 254 244 245 242 234 228 224 219 213 209 215 223 222 217 213 213 211 210 213 223 235 246 259 273 289 306 312 311
Height
3197 3198 3197 3198 3198 3198 3197 3197 3198 3199 3200 3201 3199 3198 3197 3196 3196 3196 3196 3197 3199 3200 3200 3200 3199 3200 3200 3199 3199 3200 3201 3203 3203 3204 3205 3205 3203 3202 3201 3202 3202 3203 3203 3203 3202 3200 3199 3198 3199 3201 3202 3202 3202 3202 3202 3202 3202 3202 3202 3201 3201 3201 3200 3200 3199 3199 3199 3198 3198 3198 3198 3197 3197 3196 3196 3195 3194 3193 3192 3191 3190 3189 3188 3187 3186 3184
3195 3194 3195 3196 3197 3196 3196 3195 3195 3196 3198 3199 3198 3197 3195 3194 3194 3194 3194 3195 3198 3199 3199 3199 3199 3199 3200 3199 3199 3201 3202 3203 3202 3201 3203 3203 3202 3201 3200 3200 3201 3201 3202 3202 3199 3198 3197 3197 3199 3201 3201 3201 3202 3202 3202 3202 3202 3201 3201 3201 3200 3200 3200 3199 3199 3199 3198 3198 3198 3198 3197 3197 3196 3196 3195 3195 3194 3193 3191 3190 3189 3188 3187 3186 3184 3183
3191 3191 3193 3195 3195 3195 3194 3194 3194 3194 3194 3195 3196 3195 3193 3192 3193 3192 3193 3194 3195 3196 3198 3198 3197 3198 3200 3199 3201 3203 3203 3203 3202 3201 3201 3201 3201 3200 3199 3200 3200 3201 3201 3200 3198 3197 3198 3198 3199 3200 3200 3201 3201 3201 3201 3201 3201 3201 3201 3200 3200 3200 3199 3199 3199 3198 3198 3197 3197 3197 3196 3196 3196 3195 3195 3194 3193 3192 3190 3189 3188 3188 3186 3185 3184 3182
3187 3188 3192 3194 3194 3194 3193 3193 3194 3193 3193 3192 3193 3192 3191 3191 3191 3190 3191 3191 3192 3194 3196 3196 3196 3197 3199 3199 3201 3204 3203 3203 3203 3203 3201 3199 3199 3199 3199 3200 3201 3201 3200 3199 3198 3197 3197 3198 3199 3199 3199 3200 3201 3201 3201 3201 3201 3200 3200 3200 3200 3199 3199 3199 3198 3198 3197 3197 3197 3196 3196 3195 3194 3194 3193 3193 3192 3191 3189 3188 3187 3186 3185 3184 3182 3181
3184 3187 3190 3191 3192 3192 3191 3191 3192 3192 3192 3191 3191 3190 3189 3190 3190 3188 3188 3190 3192 3193 3193 3194 3195 3197 3197 3198 3201 3202 3202 3203 3202 3202 3200 3198 3199 3199 3199 3200 3200 3200 3200 3199 3198 3197 3197 3197 3198 3198 3198 3199 3200 3201 3201 3200 3200 3200 3200 3200 3199 3199 3199 3198 3198 3197 3196 3196 3196 3195 3194 3194 3193 3193 3192 3191 3190 3189 3188 3186 3185 3185 3184 3183 3181 3179
3183 3185 3188 3189 3189 3189 3189 3188 3189 3191 3190 3189 3189 3188 3188 3188 3188 3188 3187 3188 3191 3191 3191 3193 3195 3196 3196 3197 3199 3199 3200 3201 3200 3199 3198 3197 3198 3198 3198 3200 3200 3199 3199 3199 3198 3197 3197 3197 3198 3198 3198 3198 3199 3200 3200 3200 3200 3200 3199 3199 3199 3199 3198 3198 3197 3197 3196 3196 3195 3194 3193 3192 3192 3191 3190 3189 3188 3188 3187 3185 3184 3183 3182 3181 3179 3178
3181 3183 3185 3186 3186 3186 3188 3186 3186 3189 3189 3187 3186 3186 3187 3186 3187 3187 3186 3186 3187 3187 3188 3189 3191 3192 3192 3194 3197 3197 3197 3198 3197 3197 3197 3196 3196 3196 3196 3198 3199 3198 3198 3197 3197 3197 3197 3197 3197 3197 3197 3198 3199 3199 3199 3199 3199 3199 3199 3199 3198 3198 3198 3197 3197 3197 3196 3196 3195 3194 3192 3192 3191 3190 3189 3187 3186 3185 3185 3184 3183 3182 3181 3179 3177 3176
3179 3182 3183 3184 3184 3184 3185 3184 3185 3188 3187 3185 3184 3185 3186 3186 3186 3186 3185 3185 3185 3184 3186 3186 3186 3188 3189 3192 3195 3195 3195 3196 3195 3194 3194 3194 3194 3194 3194 3196 3196 3197 3197 3196 3196 3196 3196 3196 3196 3196 3196 3197 3198 3198 3198 3198 3198 3198 3198 3198 3198 3197 3197 3197 3197 3196 3196 3195 3194 3193 3192 3191 3190 3189 3188 3187 3185 3184 3184 3184 3182 3181 3179 3176 3174 3173
3178 3180 3180 3182 3182 3182 3182 3182 3183 3185 3184 3183 3183 3184 3184 3184 3184 3183 3183 3184 3183 3184 3185 3185 3185 3187 3188 3190 3193 3193 3193 3194 3191 3190 3191 3191 3191 3191 3192 3193 3193 3194 3195 3195 3195 3195 3194 3194 3195 3195 3196 3196 3196 3196 3196 3197 3197 3197 3197 3197 3197 3197 3197 3197 3197 3196 3195 3194 3193 3193 3192 3190 3190 3189 3188 3187 3185 3184 3183 3182 3181 3179 3176 3174 3172 3171
3176 3177 3179 3179 3180 3180 3180 3181 3181 3183 3182 3182 3182 3181 3181 3181 3182 3181 3181 3182 3182 3182 3182 3182 3183 3185 3186 3187 3188 3189 3189 3188 3187 3187 3188 3188 3188 3188 3189 3191 3191 3191 3192 3193 3193 3193 3192 3193 3194 3194 3195 3195 3195 3195 3195 3195 3195 3196 3196 3196 3196 3196 3196 3196 3195 3195 3194 3194 3193 3192 3191 3190 3189 3188 3187 3186 3185 3184 3182 3181 3179 3177 3175 3173 3171 3170
3174 3175 3176 3176 3177 3178 3178 3178 3179 3180 3180 3181 3180 3179 3179 3179 3179 3180 3179 3180 3180 3181 3180 3180 3180 3181 3183 3184 3182 3182 3183 3183 3183 3184 3185 3186 3186 3185 3187 3189 3189 3189 3190 3191 3191 3191 3191 3191 3192 3192 3193 3193 3194 3194 3194 3194 3194 3194 3195 3195 3195 3195 3195 3195 3194 3194 3193 3193 3192 3191 3190 3189 3188 3187 3186 3185 3184 3183 3181 3180 3178 3176 3174 3173 3171 3169
3172 3172 3172 3172 3174 3176 3177 3177 3177 3178 3178 3179 3179 3178 3177 3177 3177 3177 3177 3178 3179 3179 3179 3179 3178 3178 3179 3178 3177 3178 3180 3181 3181 3182 3182 3183 3183 3183 3184 3186 3187 3187 3188 3188 3188 3188 3189 3190 3190 3190 3191 3192 3192 3192 3193 3193 3193 3193 3194 3194 3194 3194 3194 3194 3194 3193 3193 3192 3191 3190 3189 3188 3188 3187 3186 3185 3184 3182 3181 3179 3177 3175 3174 3172 3170 3169
3171 3170 3170 3170 3172 3174 3175 3175 3175 3176 3176 3177 3177 3177 3177 3176 3177 3177 3177 3177 3177 3177 3177 3176 3176 3176 3175 3174 3175 3177 3179 3179 3179 3180 3181 3181 3181 3181 3182 3184 3184 3185 3185 3185 3185 3186 3188 3189 3189 3189 3190 3190 3191 3191 3192 3191 3191 3192 3193 3193 3193 3193 3193 3193 3193 3192 3192 3191 3190 3189 3188 3187 3187 3186 3185 3184 3183 3182 3180 3178 3176 3175 3173 3172 3171 3169
3169 3168 3167 3168 3169 3171 3172 3172 3172 3173 3173 3174 3175 3175 3175 3176 3178 3179 3178 3177 3176 3175 3175 3175 3175 3174 3173 3173 3174 3175 3176 3177 3178 3179 3180 3180 3180 3180 3181 3182 3182 3183 3183 3183 3183 3184 3186 3187 3187 3188 3188 3189 3190 3190 3190 3190 3190 3191 3192 3192 3192 3191 3192 3192 3192 3192 3191 3190 3189 3188 3187 3186 3186 3185 3184 3183 3182 3180 3179 3177 3176 3174 3173 3172 3171 3169
3167 3165 3165 3166 3168 3168 3169 3169 3169 3170 3171 3172 3173 3174 3174 3174 3177 3178 3176 3175 3175 3173 3173 3173 3173 3172 3172 3171 3172 3173 3175 3177 3177 3177 3178 3178 3178 3179 3180 3180 3180 3180 3181 3181 3181 3183 3185 3186 3186 3187 3187 3188 3188 3188 3188 3188 3189 3190 3190 3191 3190 3190 3191 3191 3191 3191 3190 3189 3189 3188 3187 3186 3185 3184 3183 3182 3181 3180 3178 3177 3175 3174 3173 3171 3170 3169
3166 3164 3163 3165 3167 3167 3167 3167 3168 3169 3170 3171 3172 3172 3171 3171 3173 3174 3174 3173 3173 3173 3172 3171 3171 3171 3171 3171 3172 3173 3174 3175 3175 3176 3177 3176 3176 3178 3178 3178 3178 3179 3179 3179 3180 3181 3183 3184 3185 3185 3185 3186 3186 3186 3186 3187 3187 3188 3189 3190 3189 3189 3190 3190 3190 3190 3189 3189 3188 3187 3186 3185 3184 3184 3183 3181 3180 3179 3178 3176 3175 3173 3172 3171 3170 3168
3164 3163 3162 3164 3164 3163 3163 3164 3165 3167 3168 3169 3170 3169 3168 3170 3172 3172 3172 3171 3172 3173 3171 3169 3170 3170 3171 3172 3172 3172 3171 3173 3174 3175 3175 3175 3176 3177 3177 3177 3177 3177 3178 3178 3179 3180 3182 3183 3183 3184 3184 3185 3184 3184 3184 3185 3186 3188 3188 3188 3188 3188 3188 3189 3189 3189 3188 3188 3187 3186 3186 3185 3183 3183 3182 3181 3179 3178 3177 3176 3174 3173 3172 3171 3169 3168
3163 3162 3161 3162 3162 3159 3158 3160 3163 3165 3166 3167 3167 3167 3168 3169 3170 3170 3171 3171 3173 3173 3170 3168 3169 3169 3170 3170 3171 3170 3171 3172 3173 3173 3174 3174 3175 3176 3176 3176 3176 3177 3177 3177 3178 3179 3180 3181 3182 3182 3183 3183 3182 3183 3184 3185 3186 3187 3187 3187 3187 3188 3188 3188 3188 3187 3187 3186 3186 3185 3184 3184 3183 3181 3181 3180 3179 3177 3176 3175 3173 3172 3171 3170 3168 3167
3162 3161 3159 3160 3160 3158 3157 3158 3160 3163 3165 3166 3166 3166 3167 3167 3167 3168 3169 3170 3171 3172 3170 3169 3169 3168 3168 3168 3168 3168 3168 3169 3170 3171 3172 3173 3174 3175 3175 3175 3175 3175 3176 3176 3177 3177 3178 3179 3180 3181 3181 3181 3181 3183 3184 3185 3185 3186 3186 3186 3186 3187 3187 3187 3186 3186 3185 3185 3184 3183 3183 3182 3182 3181 3180 3179 3177 3176 3175 3174 3173 3171 3170 3168 3167 3165
3162 3160 3158 3159 3159 3158 3158 3159 3160 3162 3163 3164 3165 3165 3165 3165 3165 3166 3167 3167 3167 3168 3169 3170 3170 3168 3166 3166 3166 3166 3166 3167 3169 3170 3170 3171 3172 3172 3172 3173 3173 3174 3174 3175 3175 3176 3177 3178 3179 3179 3179 3179 3181 3183 3183 3183 3184 3185 3185 3185 3185 3186 3186 3185 3185 3185 3184 3184 3183 3182 3182 3181 3181 3179 3178 3177 3176 3175 3174 3173 3171 3170 3168 3167 3165 3164
3161 3160 3158 3158 3159 3159 3159 3159 3161 3162 3162 3163 3164 3163 3163 3163 3164 3164 3163 3163 3164 3163 3164 3168 3169 3165 3164 3165 3165 3165 3166 3167 3168 3169 3170 3171 3171 3170 3170 3170 3170 3172 3173 3173 3174 3175 3175 3176 3177 3177 3178 3178 3180 3181 3181 3182 3183 3183 3183 3184 3184 3184 3184 3184 3184 3183 3183 3183 3182 3182 3181 3180 3179 3178 3177 3176 3175 3174 3173 3172 3170 3169 3167 3165 3164 3163
3160 3160 3158 3157 3158 3159 3159 3160 3161 3161 3162 3164 3162 3160 3161 3161 3162 3163 3161 3160 3162 3161 3160 3162 3163 3162 3162 3164 3164 3165 3166 3167 3169 3170 3171 3170 3170 3170 3170 3169 3169 3170 3171 3172 3173 3173 3174 3175 3175 3176 3177 3177 3178 3179 3180 3180 3181 3182 3182 3182 3182 3183 3183 3183 3183 3183 3182 3182 3182 3181 3180 3179 3178 3177 3176 3175 3174 3173 3172 3170 3169 3167 3166 3165 3163 3163
3159 3159 3157 3156 3156 3157 3158 3159 3160 3161 3162 3162 3159 3158 3159 3160 3160 3161 3159 3158 3160 3159 3158 3158 3160 3160 3161 3163 3163 3164 3166 3167 3168 3169 3169 3170 3170 3171 3171 3170 3169 3169 3170 3170 3171 3172 3173 3173 3174 3175 3176 3176 3177 3178 3179 3179 3180 3180 3180 3180 3181 3182 3182 3182 3182 3182 3182 3181 3180 3179 3178 3177 3177 3175 3174 3173 3172 3171 3170 3169 3167 3166 3165 3164 3163 3162
3158 3157 3156 3155 3155 3155 3157 3158 3159 3160 3159 3158 3156 3156 3157 3157 3157 3158 3157 3157 3157 3157 3156 3157 3159 3161 3161 3162 3163 3163 3164 3165 3167 3167 3168 3169 3170 3170 3170 3169 3168 3168 3168 3169 3169 3170 3171 3172 3173 3174 3174 3175 3176 3177 3178 3178 3179 3180 3180 3180 3180 3181 3181 3182 3182 3182 3181 3180 3179 3177 3176 3175 3175 3174 3173 3172 3171 3170 3169 3168 3166 3165 3164 3163 3162 3162
3156 3157 3157 3157 3156 3155 3156 3157 3157 3158 3157 3156 3156 3156 3156 3155 3155 3156 3157 3157 3157 3157 3156 3156 3158 3160 3160 3161 3162 3162 3163 3165 3165 3166 3166 3167 3168 3169 3169 3168 3168 3168 3168 3168 3169 3169 3170 3171 3172 3173 3173 3174 3175 3176 3176 3177 3178 3179 3180 3179 3179 3180 3180 3181 3181 3180 3179 3178 3177 3175 3174 3173 3173 3172 3171 3170 3170 3169 3168 3167 3165 3164 3164 3163 3163 3162
3156 3157 3157 3158 3158 3159 3159 3158 3158 3158 3157 3155 3155 3154 3154 3154 3154 3155 3155 3155 3157 3158 3156 3156 3157 3158 3159 3160 3161 3162 3163 3163 3164 3164 3165 3166 3167 3168 3168 3168 3168 3168 3168 3168 3169 3169 3170 3170 3171 3172 3173 3173 3174 3175 3175 3175 3177 3178 3179 3179 3178 3179 3179 3179 3179 3178 3177 3176 3175 3174 3172 3171 3171 3171 3171 3170 3169 3168 3167 3166 3165 3164 3164 3163 3163 3162
3155 3156 3157 3158 3159 3159 3159 3159 3159 3158 3156 3154 3153 3152 3152 3152 3153 3153 3154 3155 3156 3157 3156 3156 3156 3158 3159 3160 3160 3161 3162 3162 3163 3163 3164 3165 3166 3166 3167 3167 3167 3168 3168 3168 3168 3169 3169 3169 3170 3171 3172 3172 3173 3173 3173 3173 3175 3176 3177 3177 3177 3178 3177 3177 3177 3176 3175 3174 3174 3173 3171 3170 3170 3170 3169 3169 3168 3167 3166 3165 3165 3164 3164 3163 3162 3162
3154 3155 3156 3157 3158 3158 3159 3159 3159 3158 3155 3154 3153 3152 3152 3152 3152 3152 3153 3156 3156 3156 3156 3156 3155 3156 3158 3159 3160 3160 3160 3161 3162 3163 3164 3165 3165 3166 3166 3166 3166 3167 3167 3168 3168 3168 3168 3169 3169 3170 3171 3171 3172 3172 3171 3171 3172 3174 3175 3176 3176 3176 3175 3175 3175 3174 3173 3173 3172 3171 3170 3170 3169 3169 3168 3167 3167 3166 3165 3165 3165 3164 3163 3162 3162 3162
3154 3154 3155 3156 3157 3158 3158 3159 3159 3157 3155 3154 3153 3153 3153 3153 3152 3151 3153 3155 3156 3156 3156 3156 3156 3156 3157 3157 3159 3159 3160 3161 3162 3163 3163 3164 3164 3164 3164 3165 3165 3166 3167 3167 3168 3168 3168 3168 3169 3170 3170 3170 3170 3170 3169 3170 3171 3172 3172 3173 3174 3173 3173 3173 3173 3172 3172 3171 3170 3169 3169 3169 3168 3168 3167 3166 3165 3165 3164 3164 3164 3163 3163 3162 3162 3162
3153 3154 3154 3155 3156 3156 3157 3157 3158 3156 3154 3153 3153 3154 3154 3155 3155 3154 3154 3155 3155 3155 3155 3156 3157 3158 3157 3157 3158 3159 3160 3161 3162 3162 3162 3162 3162 3163 3163 3164 3165 3165 3166 3167 3167 3167 3168 3168 3169 3169 3169 3169 3169 3168 3168 3168 3169 3170 3171 3172 3172 3172 3172 3172 3172 3171 3170 3170 3169 3169 3168 3168 3168 3167 3166 3165 3164 3164 3164 3164 3163 3162 3162 3162 3162 3162
3152 3153 3153 3154 3155 3155 3156 3157 3157 3156 3155 3153 3153 3154 3155 3155 3157 3157 3157 3156 3155 3155 3154 3155 3157 3158 3158 3158 3159 3160 3161 3161 3162 3162 3161 3160 3161 3162 3163 3163 3164 3165 3166 3166 3166 3166 3167 3167 3168 3168 3168 3168 3167 3167 3167 3167 3168 3169 3170 3171 3171 3171 3171 3170 3170 3170 3169 3168 3168 3168 3168 3167 3167 3166 3165 3164 3164 3164 3163 3163 3162 3162 3162 3162 3162 3162
3152 3153 3153 3153 3154 3155 3156 3156 3156 3155 3155 3155 3155 3155 3156 3156 3156 3157 3157 3157 3156 3155 3154 3154 3155 3156 3157 3158 3159 3160 3161 3161 3162 3162 3161 3160 3161 3161 3162 3163 3164 3164 3164 3165 3165 3165 3165 3166 3167 3167 3167 3167 3166 3166 3166 3167 3167 3168 3168 3169 3169 3169 3169 3169 3169 3168 3168 3167 3167 3167 3167 3166 3166 3165 3164 3164 3164 3163 3163 3162 3162 3162 3162 3162 3162 3162
3152 3153 3153 3153 3154 3155 3155 3156 3155 3154 3154 3155 3156 3157 3156 3156 3156 3157 3156 3156 3155 3155 3154 3153 3153 3155 3156 3157 3158 3159 3160 3161 3161 3161 3161 3160 3160 3161 3162 3162 3163 3163 3163 3163 3163 3163 3164 3165 3165 3166 3166 3166 3166 3166 3166 3166 3167 3167 3167 3167 3167 3168 3168 3168 3167 3167 3167 3166 3166 3166 3165 3165 3164 3164 3163 3163 3164 3163 3163 3162 3162 3162 3162 3162 3162 3161
3152 3152 3153 3153 3154 3154 3154 3155 3154 3154 3155 3157 3157 3157 3157 3157 3157 3157 3156 3156 3155 3155 3154 3153 3153 3153 3155 3157 3157 3158 3159 3159 3160 3160 3160 3160 3160 3160 3160 3161 3161 3161 3161 3162 3162 3162 3163 3163 3164 3164 3165 3165 3165 3165 3165 3166 3166 3166 3166 3166 3167 3167 3167 3166 3166 3166 3166 3165 3165 3165 3164 3164 3164 3163 3163 3163 3163 3163 3162 3162 3162 3162 3162 3162 3162 3162
3151 3152 3152 3153 3153 3154 3154 3154 3155 3157 3158 3158 3158 3158 3157 3157 3157 3156 3156 3156 3156 3155 3155 3154 3153 3154 3155 3156 3157 3158 3158 3158 3158 3158 3158 3159 3159 3159 3160 3160 3161 3161 3161 3161 3161 3162 3162 3163 3163 3163 3164 3164 3164 3164 3165 3165 3165 3165 3165 3166 3166 3166 3166 3166 3165 3165 3165 3164 3165 3164 3164 3163 3163 3163 3162 3162 3162 3162 3161 3162 3162 3162 3161 3161 3162 3162
3150 3151 3151 3152 3152 3153 3154 3154 3156 3159 3159 3158 3158 3157 3157 3157 3156 3156 3156 3155 3155 3154 3154 3153 3154 3154 3155 3156 3156 3157 3157 3157 3157 3157 3157 3158 3158 3159 3159 3160 3161 3161 3161 3162 3162 3162 3162 3162 3162 3162 3163 3163 3163 3164 3164 3164 3164 3164 3165 3165 3165 3165 3165 3165 3164 3164 3163 3163 3163 3163 3163 3162 3162 3162 3162 3162 3161 3161 3161 3161 3161 3161 3161 3161 3161 3161
3148 3149 3150 3151 3151 3152 3154 3155 3157 3158 3158 3157 3157 3156 3156 3156 3155 3154 3154 3154 3154 3153 3153 3153 3154 3154 3155 3155 3155 3155 3155 3155 3155 3156 3156 3157 3157 3158 3158 3159 3160 3161 3161 3162 3161 3161 3161 3161 3161 3161 3161 3162 3162 3163 3163 3163 3164 3164 3164 3165 3165 3165 3165 3164 3163 3163 3162 3162 3162 3162 3162 3162 3161 3161 3161 3161 3161 3160 3161 3161 3161 3161 3161 3161 3161 3161
3147 3147 3148 3149 3150 3151 3153 3155 3156 3156 3156 3156 3155 3155 3154 3154 3153 3153 3153 3153 3154 3154 3153 3153 3153 3153 3154 3154 3154 3154 3154 3155 3155 3155 3155 3155 3155 3156 3158 3159 3159 3160 3161 3161 3161 3161 3160 3160 3160 3160 3161 3161 3162 3162 3162 3162 3163 3164 3164 3164 3164 3164 3164 3164 3163 3162 3162 3161 3161 3161 3161 3161 3160 3160 3160 3160 3160 3160 3160 3160 3161 3161 3161 3161 3161 3161
3144 3145 3146 3147 3148 3150 3151 3152 3153 3154 3154 3154 3154 3153 3153 3152 3153 3153 3153 3152 3153 3153 3153 3153 3153 3153 3153 3153 3153 3153 3153 3154 3154 3154 3154 3154 3155 3156 3157 3158 3159 3159 3159 3160 3159 3159 3159 3159 3159 3159 3160 3161 3161 3161 3161 3162 3162 3163 3163 3163 3164 3164 3163 3163 3162 3161 3161 3160 3160 3160 3160 3160 3160 3160 3159 3159 3159 3160 3160 3160 3160 3160 3161 3161 3161 3160
3142 3144 3145 3145 3146 3147 3148 3150 3151 3152 3152 3153 3153 3152 3152 3152 3153 3153 3152 3152 3152 3153 3153 3153 3153 3152 3153 3152 3152 3152 3152 3153 3153 3153 3153 3154 3154 3155 3156 3157 3157 3157 3157 3158 3158 3158 3158 3158 3158 3159 3159 3160 3160 3160 3160 3161 3161 3162 3162 3163 3163 3163 3163 3162 3161 3160 3159 3159 3159 3159 3159 3159 3159 3159 3159 3159 3159 3159 3160 3160 3160 3160 3160 3160 3160 3160
3142 3144 3145 3146 3146 3146 3147 3148 3150 3150 3151 3152 3152 3152 3152 3152 3152 3152 3152 3151 3152 3152 3152 3152 3152 3152 3152 3152 3152 3152 3152 3151 3151 3152 3153 3153 3153 3154 3155 3155 3156 3156 3156 3156 3156 3156 3156 3157 3157 3158 3158 3159 3159 3159 3160 3160 3161 3161 3161 3162 3162 3162 3161 3160 3159 3159 3158 3158 3158 3158 3158 3158 3158 3158 3158 3158 3158 3159 3159 3159 3159 3159 3160 3160 3159 3159
3143 3144 3146 3147 3147 3147 3148 3148 3149 3149 3150 3150 3151 3151 3151 3152 3151 3151 3151 3151 3151 3151 3150 3150 3150 3151 3151 3151 3151 3151 3151 3150 3150 3151 3152 3152 3152 3153 3154 3154 3154 3154 3154 3154 3154 3154 3155 3155 3156 3157 3158 3158 3158 3158 3159 3160 3160 3160 3161 3161 3161 3160 3160 3159 3158 3157 3157 3157 3157 3157 3157 3157 3157 3157 3157 3158 3158 3158 3159 3159 3159 3159 3159 3159 3159 3158
3143 3144 3145 3146 3147 3147 3147 3148 3148 3148 3149 3149 3150 3150 3150 3150 3150 3149 3149 3150 3150 3150 3149 3149 3149 3149 3150 3150 3150 3149 3149 3149 3150 3150 3151 3151 3151 3152 3152 3152 3152 3152 3152 3152 3152 3153 3153 3154 3155 3156 3156 3157 3157 3158 3158 3159 3159 3159 3160 3160 3159 3159 3158 3157 3156 3156 3155 3156 3156 3156 3156 3156 3156 3156 3157 3157 3158 3158 3158 3159 3159 3159 3159 3158 3158 3157
3143 3144 3144 3145 3146 3146 3147 3147 3147 3147 3147 3148 3148 3148 3148 3148 3148 3148 3148 3148 3148 3148 3148 3148 3148 3148 3148 3148 3148 3148 3148 3148 3148 3149 3150 3150 3150 3150 3150 3149 3149 3149 3150 3150 3150 3151 3151 3152 3153 3154 3155 3156 3156 3157 3157 3157 3158 3158 3158 3158 3158 3157 3157 3156 3155 3155 3155 3155 3155 3155 3155 3155 3155 3156 3156 3157 3157 3158 3158 3158 3158 3158 3158 3158 3157 3157
3142 3143 3143 3144 3144 3145 3145 3145 3145 3145 3145 3146 3146 3146 3146 3147 3147 3146 3146 3146 3146 3146 3146 3146 3146 3146 3147 3146 3146 3147 3147 3147 3147 3147 3148 3148 3149 3149 3148 3147 3147 3148 3148 3148 3149 3149 3150 3151 3153 3154 3155 3155 3156 3156 3156 3156 3156 3156 3157 3157 3156 3156 3155 3155 3154 3154 3154 3154 3154 3154 3154 3154 3155 3155 3156 3156 3157 3157 3158 3158 3158 3158 3158 3157 3157 3156
3141 3142 3142 3142 3143 3143 3143 3143 3143 3143 3143 3144 3144 3143 3144 3144 3144 3144 3144 3144 3144 3144 3144 3144 3145 3145 3145 3145 3145 3146 3146 3146 3146 3146 3146 3147 3147 3146 3146 3146 3146 3146 3147 3147 3147 3148 3150 3151 3152 3153 3154 3154 3154 3153 3153 3154 3154 3154 3155 3155 3155 3155 3154 3154 3154 3153 3153 3153 3153 3153 3153 3154 3154 3155 3155 3156 3157 3157 3157 3158 3158 3158 3157 3157 3156 3156
3140 3141 3141 3141 3141 3141 3141 3141 3141 3141 3141 3141 3141 3141 3141 3141 3142 3142 3142 3141 3142 3142 3143 3142 3143 3143 3143 3144 3144 3144 3144 3144 3144 3144 3144 3145 3145 3145 3146 3146 3145 3145 3145 3146 3146 3147 3149 3150 3151 3152 3152 3151 3151 3151 3151 3152 3153 3153 3153 3153 3153 3154 3153 3153 3153 3153 3152 3152 3152 3153 3153 3153 3154 3154 3155 3156 3156 3157 3157 3157 3157 3157 3157 3156 3156 3155
3139 3140 3139 3139 3139 3139 3139 3139 3140 3140 3140 3139 3139 3139 3140 3140 3140 3140 3140 3140 3140 3141 3141 3141 3141 3141 3142 3142 3143 3143 3143 3143 3143 3143 3143 3144 3145 3145 3144 3143 3143 3144 3144 3145 3145 3146 3147 3148 3150 3150 3150 3149 3149 3149 3150 3150 3151 3152 3152 3152 3152 3153 3152 3152 3152 3151 3151 3151 3152 3152 3153 3153 3153 3154 3155 3155 3156 3156 3157 3157 3157 3157 3156 3156 3155 3155
3138 3138 3138 3138 3138 3137 3138 3138 3138 3138 3138 3138 3139 3139 3139 3139 3139 3139 3138 3138 3138 3139 3139 3139 3139 3139 3140 3141 3141 3142 3142 3142 3142 3142 3142 3143 3143 3143 3141 3141 3141 3142 3143 3143 3144 3145 3146 3147 3148 3148 3148 3148 3148 3149 3149 3149 3150 3151 3151 3151 3151 3151 3151 3151 3151 3150 3151 3151 3151 3152 3152 3152 3153 3153 3154 3155 3156 3156 3156 3156 3156 3156 3156 3155 3155 3154
3137 3137 3137 3137 3136 3136 3136 3137 3137 3137 3137 3138 3138 3138 3138 3138 3138 3138 3137 3137 3137 3137 3137 3138 3138 3138 3139 3140 3140 3140 3140 3140 3140 3140 3141 3141 3141 3140 3139 3139 3140 3141 3141 3141 3142 3143 3144 3145 3146 3146 3147 3147 3148 3148 3148 3149 3149 3149 3150 3150 3150 3150 3150 3150 3150 3150 3150 3150 3151 3151 3151 3152 3152 3153 3154 3154 3155 3155 3156 3156 3156 3155 3155 3154 3154 3153
3135 3136 3136 3136 3135 3135 3135 3136 3136 3136 3136 3137 3137 3137 3137 3137 3137 3137 3137 3136 3135 3135 3135 3136 3136 3137 3138 3138 3139 3139 3139 3139 3139 3139 3139 3139 3139 3138 3138 3139 3139 3139 3139 3139 3140 3141 3143 3144 3144 3145 3146 3146 3147 3147 3147 3148 3148 3149 3149 3150 3150 3150 3150 3149 3149 3149 3149 3150 3150 3151 3151 3151 3152 3152 3153 3154 3154 3155 3155 3155 3155 3154 3154 3153 3153 3152